Home > Weather > Warsaw > Past weeks

Flag for Poland Past Weather in Warsaw, Poland — Yesterday and Last 2 Weeks

Now
82 °F

Passing clouds.


Feels Like: 82 °F
Forecast: 67 / 90 °F
Wind: 3 mph from Southwest

Location: Warsaw Okecie Airport

Current Time: Jul 1, 2016 at 7:07:27 PM

Latest Report: Jul 1, 2016 at 6:30 PM


Visibility: N/A

Pressure: 30.01 "Hg

Humidity: 45%

Dew Point: 59 °F

Location of WarsawLocation

Past Weather in Warsaw — Graph

°F

Warsaw Temperature Yesterday

Maximum temperature yesterday: 88 °F (at 3:00 PM)
Minimum temperature yesterday: 61 °F (at 5:00 AM)
Average temperature yesterday: 75 °F

High & Low Weather Summary for the Past Weeks

 TemperatureHumidityPressure
High93 °F (Jun 25, 3:00 PM)100% (Jun 19, 3:30 AM)30.33 "Hg (Jun 19, 3:30 AM)
Low52 °F (Jun 19, 4:00 AM)28% (Jun 19, 4:00 PM)29.45 "Hg (Jun 17, 12:30 PM)
Average72 °F66%30.02 "Hg
* Reported Jun 16 6:00 PM — Jul 1 6:00 PM, Warsaw, Weather by CustomWeather, © 2016

Note: Actual official high and low records may vary slightly from our data, if they occured in-between our weather recording intervals... More about our weather records

Advertising

Warsaw Weather History for the Previous 24 Hours

Scroll right to see more
 ConditionsComfort  
Time TempWeatherWind HumidityBarometerVisibility
6:00 PM
Fri, Jul 1
82 °FSunny.3 mph48%30.01 "Hg10 mi
5:30 PM82 °FPassing clouds.3 mph48%30.01 "HgN/A
5:00 PM82 °FPassing clouds.3 mph45%30.01 "HgN/A
4:30 PM84 °FPassing clouds.3 mph48%30.01 "HgN/A
4:00 PM81 °FSunny.5 mph51%30.01 "Hg10 mi
3:30 PM82 °FPassing clouds.5 mph48%30.01 "HgN/A
3:00 PM79 °FPassing clouds.5 mph54%30.01 "HgN/A
2:30 PM81 °FPassing clouds.7 mph51%30.01 "HgN/A
2:00 PM81 °FPassing clouds.8 mph51%30.04 "HgN/A
1:30 PM79 °FPassing clouds.6 mph54%30.04 "HgN/A
1:00 PM79 °FPassing clouds.5 mph58%30.04 "HgN/A
12:30 PM77 °FPassing clouds.6 mph61%30.04 "HgN/A
12:00 PM77 °FPassing clouds.5 mph57%30.04 "HgN/A
11:30 AM77 °FPassing clouds.2 mph65%30.04 "HgN/A
11:00 AM75 °FPassing clouds.3 mph65%30.04 "HgN/A
10:30 AM72 °FPassing clouds.2 mph73%30.04 "HgN/A
10:00 AM73 °FScattered clouds.6 mph69%30.04 "HgN/A
9:30 AM72 °FPassing clouds.7 mph78%30.04 "HgN/A
9:00 AM70 °FPassing clouds.6 mph88%30.04 "HgN/A
8:30 AM68 °FPassing clouds.5 mph88%30.01 "HgN/A
8:00 AM68 °FPassing clouds.6 mph88%30.01 "HgN/A
7:30 AM68 °FPassing clouds.5 mph88%30.01 "HgN/A
7:00 AM66 °FSunny.7 mph94%30.01 "Hg10 mi
6:30 AM66 °FSunny.6 mph88%30.01 "Hg10 mi
6:00 AM64 °FSunny.5 mph94%30.01 "Hg10 mi
5:30 AM64 °FPassing clouds.3 mph94%30.01 "HgN/A
5:00 AM64 °FPassing clouds.3 mph94%29.98 "HgN/A
4:30 AM63 °FPassing clouds.5 mph100%29.98 "HgN/A
4:00 AM63 °FPassing clouds.3 mph100%29.98 "HgN/A
3:30 AM64 °FClear.3 mph94%29.98 "Hg10 mi
3:00 AM64 °FClear.2 mph94%29.98 "Hg10 mi
2:30 AM66 °FLight rain. Clear.No wind88%29.98 "HgN/A
2:00 AM66 °FClear.2 mph88%29.98 "Hg10 mi
1:30 AM66 °FClear.2 mph88%29.98 "Hg10 mi
1:00 AM66 °FPassing clouds.3 mph94%29.98 "HgN/A
12:30 AM66 °FClear.2 mph94%29.98 "Hg10 mi
12:00 AM68 °FSprinkles. Passing clouds.3 mph88%29.98 "HgN/A
11:30 PM
Thu, Jun 30
68 °FSprinkles. Passing clouds.6 mph88%29.98 "HgN/A
11:00 PM66 °FSprinkles. Passing clouds.2 mph94%29.98 "HgN/A
10:30 PM66 °FSprinkles. Passing clouds.6 mph94%30.01 "HgN/A
10:00 PM68 °FSprinkles. Passing clouds.12 mph88%30.01 "HgN/A
9:30 PM72 °FSprinkles. Passing clouds.15 mph73%29.98 "HgN/A
9:00 PM77 °FSunny.2 mph54%29.92 "Hg10 mi
8:30 PM75 °FSunny.No wind61%29.92 "Hg10 mi
8:00 PM77 °FSunny.2 mph57%29.92 "Hg10 mi
7:30 PM81 °FSunny.2 mph51%29.92 "Hg10 mi
7:00 PM82 °FSunny.3 mph42%29.92 "Hg10 mi
Weather by CustomWeather, © 2016

See weather overviewHow to use our weather pages